Date String (YYYY-MM-DD hh:mm:ss) UTC,Instrument flags,Ambient pressure (hPa),Sample flow (lpm),Bypass flow (lpm),Sample temperature (°C),Ambient temperature (°C),ASC tube jacket temperature (°C),LED temperature (°C),Box temperature (°C),Sample RH (%),Span deviation,Mass concentration (μg/m³),Mass concentration (μg/m³),Mass concentration (μg/m³)
DateTimeUTC,F1_M11,P_M11,Q1_M11,Q2_M11,T1_M11,T2_M11,T3_M11,T4_M11,T5_M11,U1_M11,ZSPAN_M11,X0_M11,X2_M11,X1_M11
2023-04-13 19:00:00,,0815.0,5.00,0.00,28.2,26.8,00.0,36.5,29.8,09.6,0000.0,0009.65,0003.61,0002.53
2023-04-13 19:01:00,,0815.0,5.00,0.00,28.2,26.8,00.0,36.5,29.8,09.9,0000.0,0009.19,0003.55,0002.50
2023-04-13 19:02:00,,0815.0,5.00,0.00,28.2,26.8,00.0,36.5,29.9,09.9,0000.0,0009.40,0003.56,0002.51
2023-04-13 19:03:00,,0815.1,5.00,0.00,28.2,26.8,00.0,36.5,29.9,09.9,0000.0,0009.49,0003.55,0002.48
2023-04-13 19:04:00,,0815.0,5.00,0.00,28.2,26.9,00.0,36.5,29.9,09.5,0000.0,0009.27,0003.50,0002.45
2023-04-13 19:05:00,,0815.0,5.00,0.00,28.2,26.9,00.0,36.5,29.9,09.6,0000.0,0009.46,0003.44,0002.42
2023-04-13 19:06:00,,0815.0,5.00,0.00,28.2,26.9,00.0,36.6,29.9,09.7,0000.0,0009.87,0003.39,0002.39
2023-04-13 19:07:00,,0815.0,5.00,0.00,28.3,26.9,00.0,36.6,29.9,10.1,0000.0,0008.55,0003.37,0002.37
2023-04-13 19:08:00,,0815.1,5.01,0.00,28.3,27.0,00.0,36.6,29.9,10.2,0000.0,0008.07,0003.36,0002.37
2023-04-13 19:09:00,,0815.0,5.00,0.00,28.3,27.0,00.0,36.6,30.0,10.2,0000.0,0008.25,0003.40,0002.38
2023-04-13 19:10:00,,0814.9,5.00,0.00,28.3,27.0,00.0,36.6,30.0,10.4,0000.0,0008.09,0003.38,0002.37
2023-04-13 19:11:00,,0814.9,5.00,0.00,28.3,27.0,00.0,36.6,30.0,10.2,0000.0,0008.20,0003.41,0002.38
2023-04-13 19:12:00,,0814.9,5.00,0.00,28.4,27.0,00.0,36.6,30.0,10.6,0000.0,0008.24,0003.41,0002.39
2023-04-13 19:13:00,,0814.9,5.00,0.00,28.4,27.1,00.0,36.6,30.0,10.3,0000.0,0008.05,0003.40,0002.38
2023-04-13 19:14:00,,0814.9,5.00,0.00,28.4,27.1,00.0,36.7,30.0,10.5,0000.0,0008.00,0003.43,0002.41
2023-04-13 19:15:00,,0814.9,5.00,0.00,28.4,27.1,00.0,36.7,30.1,10.4,0000.0,0008.14,0003.48,0002.42
2023-04-13 19:16:00,,0814.9,5.00,0.00,28.4,27.1,00.0,36.7,30.1,10.4,0000.0,0008.22,0003.50,0002.44
2023-04-13 19:17:00,,0814.9,5.00,0.00,28.4,27.2,00.0,36.7,30.1,10.3,0000.0,0008.14,0003.51,0002.45
2023-04-13 19:18:00,,0814.9,5.00,0.00,28.5,27.2,00.0,36.7,30.1,10.6,0000.0,0008.49,0003.49,0002.47
2023-04-13 19:19:00,,0814.9,5.00,0.00,28.5,27.2,00.0,36.7,30.1,10.6,0000.0,0008.51,0003.50,0002.47
2023-04-13 19:20:00,,0814.9,5.00,0.00,28.5,27.2,00.0,36.7,30.2,10.1,0000.0,0008.22,0003.43,0002.46
2023-04-13 19:21:00,,0814.8,5.00,0.00,28.5,27.3,00.0,36.8,30.2,10.1,0000.0,0008.26,0003.45,0002.45
2023-04-13 19:22:00,,0814.9,5.00,0.00,28.5,27.3,00.0,36.8,30.2,10.2,0000.0,0008.09,0003.42,0002.46
2023-04-13 19:23:00,,0814.9,5.00,0.00,28.6,27.3,00.0,36.8,30.2,10.4,0000.0,0008.10,0003.41,0002.46
2023-04-13 19:24:00,,0814.9,5.00,0.00,28.6,27.4,00.0,36.8,30.2,10.5,0000.0,0008.46,0003.39,0002.47
2023-04-13 19:25:00,,0814.9,5.00,0.00,28.6,27.4,00.0,36.8,30.2,10.6,0000.0,0008.79,0003.38,0002.47
2023-04-13 19:26:00,,0814.9,4.99,0.00,28.6,27.4,00.0,36.8,30.2,10.8,0000.0,0008.89,0003.39,0002.49
2023-04-13 19:27:00,,0814.9,5.00,0.00,28.6,27.4,00.0,36.9,30.3,10.5,0000.0,0008.66,0003.43,0002.49
2023-04-13 19:28:00,,0814.8,5.00,0.00,28.6,27.4,00.0,36.9,30.3,10.3,0000.0,0008.17,0003.42,0002.51
2023-04-13 19:29:00,,0814.8,5.00,0.00,28.7,27.4,00.0,36.9,30.3,10.2,0000.0,0008.39,0003.44,0002.49
2023-04-13 19:30:00,,0814.8,5.01,0.00,28.7,27.4,00.0,36.9,30.3,10.0,0000.0,0008.93,0003.42,0002.48
2023-04-13 19:31:00,,0814.8,5.01,0.00,28.7,27.5,00.0,36.9,30.3,10.2,0000.0,0009.36,0003.44,0002.47
2023-04-13 19:32:00,,0814.8,4.99,0.00,28.7,27.5,00.0,36.9,30.4,10.2,0000.0,0009.67,0003.46,0002.47
2023-04-13 19:33:00,,0814.8,5.00,0.00,28.7,27.5,00.0,37.0,30.4,10.2,0000.0,0010.61,0003.48,0002.46
2023-04-13 19:34:00,,0814.8,5.00,0.00,28.8,27.5,00.0,37.0,30.4,09.9,0000.0,0010.75,0003.51,0002.47
2023-04-13 19:35:00,,0814.8,5.02,0.00,28.8,27.5,00.0,37.0,30.5,09.8,0000.0,0010.50,0003.52,0002.44
2023-04-13 19:36:00,,0814.7,5.00,0.00,28.8,27.6,00.0,37.0,30.5,10.0,0000.0,0010.26,0003.53,0002.42
2023-04-13 19:37:00,,0814.7,4.99,0.00,28.8,27.6,00.0,37.0,30.5,10.0,0000.0,0011.23,0003.50,0002.38
2023-04-13 19:38:00,,0814.7,4.99,0.00,28.8,27.6,00.0,37.1,30.5,10.0,0000.0,0011.63,0003.52,0002.38
2023-04-13 19:39:00,,0814.7,4.99,0.00,28.8,27.6,00.0,37.1,30.5,10.1,0000.0,0011.95,0003.52,0002.36
2023-04-13 19:40:00,,0814.6,5.00,0.00,28.9,27.6,00.0,37.1,30.5,10.1,0000.0,0011.47,0003.49,0002.37
2023-04-13 19:41:00,,0814.7,5.00,0.00,28.9,27.7,00.0,37.1,30.5,09.9,0000.0,0010.70,0003.49,0002.39
2023-04-13 19:42:00,,0814.7,5.00,0.00,28.9,27.7,00.0,37.1,30.6,09.9,0000.0,0011.46,0003.51,0002.39
2023-04-13 19:43:00,,0814.7,5.00,0.00,28.9,27.7,00.0,37.1,30.6,09.9,0000.0,0011.96,0003.51,0002.39
2023-04-13 19:44:00,,0814.8,5.00,0.00,28.9,27.7,00.0,37.2,30.6,09.8,0000.0,0011.79,0003.51,0002.40
2023-04-13 19:45:00,,0814.8,5.00,0.00,29.0,27.7,00.0,37.2,30.6,09.6,0000.0,0011.67,0003.48,0002.39
2023-04-13 19:46:00,,0814.8,5.00,0.00,29.0,27.8,00.0,37.2,30.6,09.5,0000.0,0012.34,0003.49,0002.39
2023-04-13 19:47:00,,0814.8,4.99,0.00,29.0,27.8,00.0,37.2,30.6,09.5,0000.0,0012.71,0003.50,0002.37
2023-04-13 19:48:00,,0814.7,5.00,0.00,29.0,27.8,00.0,37.2,30.7,09.7,0000.0,0012.22,0003.48,0002.37
2023-04-13 19:49:00,,0814.7,5.00,0.00,29.0,27.8,00.0,37.3,30.7,09.8,0000.0,0012.37,0003.44,0002.35
2023-04-13 19:50:00,,0814.6,5.00,0.00,29.0,27.8,00.0,37.3,30.7,09.7,0000.0,0013.14,0003.42,0002.34
2023-04-13 19:51:00,,0814.7,4.99,0.00,29.1,27.9,00.0,37.3,30.7,09.8,0000.0,0013.49,0003.45,0002.34
2023-04-13 19:52:00,,0814.6,5.00,0.00,29.1,27.9,00.0,37.3,30.7,10.0,0000.0,0013.94,0003.48,0002.34
2023-04-13 19:53:00,,0814.6,5.00,0.00,29.1,27.9,00.0,37.3,30.7,09.8,0000.0,0013.34,0003.48,0002.34
2023-04-13 19:54:00,,0814.6,4.99,0.00,29.1,27.9,00.0,37.3,30.8,09.9,0000.0,0012.86,0003.48,0002.35
2023-04-13 19:55:00,,0814.6,5.01,0.00,29.1,27.9,00.0,37.4,30.8,09.9,0000.0,0012.85,0003.48,0002.36
2023-04-13 19:56:00,,0814.6,5.00,0.00,29.1,27.9,00.0,37.4,30.8,09.9,0000.0,0013.36,0003.48,0002.37
2023-04-13 19:57:00,,0814.6,5.00,0.00,29.2,27.9,00.0,37.4,30.8,10.0,0000.0,0013.30,0003.50,0002.39
2023-04-13 19:58:00,,0814.6,5.00,0.00,29.2,28.0,00.0,37.4,30.9,09.8,0000.0,0013.43,0003.51,0002.43
2023-04-13 19:59:00,,0814.6,5.00,0.00,29.2,28.0,00.0,37.4,30.9,10.0,0000.0,0013.08,0003.52,0002.45
